{"data":{"norad_id":58851,"epoch":"2026-09-22T22:42:45.495360Z","epoch_age_seconds":40979,"freshness":"FRESH","line1":"1 58851U 24018C   26265.94635990  .00000442  00000+0  73859-4 0  9993","line2":"2 58851  58.6849 239.8348 0417390 223.3172 133.4338 14.41439112139389","mean_motion":14.41439112,"eccentricity":0.041739,"inclination_deg":58.6849,"raan_deg":239.8348,"arg_perigee_deg":223.3172,"mean_anomaly_deg":133.4338,"bstar":7.3859e-5,"rev_number":13938,"period_min":99.900161443656,"perigee_km":456.06985821019,"apogee_km":1051.4253199369,"semimajor_km":7131.8845890735,"source":"CELESTRAK","updated_at":"2026-09-23T09:00:19.016313Z"}}